Satellite: INMARSAT 3-F1
Catalog number: 23839
Epoch time:      103019.67151041
Element set:     851 
Inclination:        0.0481 deg
RA of node:        13.0503 deg
Eccentricity:    0.0005897
Arg of perigee:   302.5614 deg
Mean anomaly:     108.6550 deg
Mean motion:    1.00274437 rev/day
Decay rate:    2.4999E-007 rev/day^2
Epoch rev:            2491
Checksum:              276

Satellite: ASTRA 1F
Catalog number: 23842
Epoch time:      103013.00000000
Element set:     556 
Inclination:        0.0122 deg
RA of node:       319.8851 deg
Eccentricity:    0.0002995
Arg of perigee:    65.1991 deg
Mean anomaly:     106.1837 deg
Mean motion:    1.00273184 rev/day
Decay rate:    1.3899E-006 rev/day^2
Epoch rev:            2475
Checksum:              254

Satellite: JAS 2
Catalog number: 24278
Epoch time:      103019.81089575
Element set:     554 
Inclination:       98.5268 deg
RA of node:       175.0743 deg
Eccentricity:    0.0350323
Arg of perigee:   293.7649 deg
Mean anomaly:      62.7102 deg
Mean motion:   13.52869731 rev/day
Decay rate:    2.2999E-007 rev/day^2
Epoch rev:           31728
Checksum:              345

Satellite: UNAMSAT
Catalog number: 24305
Epoch time:      103017.21531561
Element set:     655 
Inclination:       82.9363 deg
RA of node:       286.7112 deg
Eccentricity:    0.0029094
Arg of perigee:   295.9635 deg
Mean anomaly:      63.8513 deg
Mean motion:   13.73447196 rev/day
Decay rate:    2.0499E-006 rev/day^2
Epoch rev:           31904
Checksum:              312

Satellite: INMARSAT 3-F2
Catalog number: 24307
Epoch time:      103017.17607640
Element set:     72 
Inclination:        0.0559 deg
RA of node:        16.1481 deg
Eccentricity:    0.0005610
Arg of perigee:   281.6129 deg
Mean anomaly:     226.2895 deg
Mean motion:    1.00271515 rev/day
Decay rate:   -1.0700E-006 rev/day^2
Epoch rev:            2329
Checksum:              251

Satellite: HOT BIRD 2
Catalog number: 24665
Epoch time:      103013.80550721
Element set:     339 
Inclination:        0.0284 deg
RA of node:       278.7326 deg
Eccentricity:    0.0008090
Arg of perigee:    44.5257 deg
Mean anomaly:      92.5403 deg
Mean motion:    1.00273403 rev/day
Decay rate:    1.0700E-006 rev/day^2
Epoch rev:            2290
Checksum:              247

Satellite: INMARSAT 3-F3
Catalog number: 24674
Epoch time:      103018.59420071
Element set:     972 
Inclination:        0.0561 deg
RA of node:       312.3184 deg
Eccentricity:    0.0004420
Arg of perigee:   345.4033 deg
Mean anomaly:     211.8585 deg
Mean motion:    1.00270771 rev/day
Decay rate:    5.2000E-007 rev/day^2
Epoch rev:            2227
Checksum:              245

Satellite: GOES 10
Catalog number: 24786
Epoch time:      103019.42114093
Element set:     509 
Inclination:        0.0658 deg
RA of node:       111.2781 deg
Eccentricity:    0.0003185
Arg of perigee:   209.9370 deg
Mean anomaly:     173.7582 deg
Mean motion:    1.00281823 rev/day
Decay rate:    9.6999E-007 rev/day^2
Epoch rev:            2103
Checksum:              288

Satellite: INMARSAT 3-F4
Catalog number: 24819
Epoch time:      103017.04658566
Element set:     866 
Inclination:        0.0607 deg
RA of node:       298.2415 deg
Eccentricity:    0.0003813
Arg of perigee:   357.5140 deg
Mean anomaly:     143.0893 deg
Mean motion:    1.00273348 rev/day
Decay rate:   -2.6899E-006 rev/day^2
Epoch rev:            2068
Checksum:              310

Satellite: FENGYUN 2A
Catalog number: 24834
Epoch time:      103008.98957809
Element set:     942 
Inclination:        2.4721 deg
RA of node:        88.7751 deg
Eccentricity:    0.0002867
Arg of perigee:   256.9049 deg
Mean anomaly:     204.9633 deg
Mean motion:    1.00265824 rev/day
Decay rate:   -1.8800E-006 rev/day^2
Epoch rev:            2043
Checksum:              311

Satellite: HOT BIRD 3
Catalog number: 24931
Epoch time:      103013.80550721
Element set:     420 
Inclination:        0.0673 deg
RA of node:       233.2523 deg
Eccentricity:    0.0010443
Arg of perigee:   100.7649 deg
Mean anomaly:      81.7511 deg
Mean motion:    1.00274844 rev/day
Decay rate:    1.0700E-006 rev/day^2
Epoch rev:            1972
Checksum:              232

Satellite: METEOSAT 7
Catalog number: 24932
Epoch time:      103018.88575000
Element set:     231 
Inclination:        0.1491 deg
RA of node:        49.7785 deg
Eccentricity:    0.0001468
Arg of perigee:   241.5004 deg
Mean anomaly:     145.4138 deg
Mean motion:    1.00274305 rev/day
Decay rate:    6.9999E-008 rev/day^2
Epoch rev:            1971
Checksum:              293

Satellite: ASTRA 1G
Catalog number: 25071
Epoch time:      103013.00000000
Element set:     387 
Inclination:        0.0122 deg
RA of node:       319.8851 deg
Eccentricity:    0.0002995
Arg of perigee:    65.1991 deg
Mean anomaly:     106.1633 deg
Mean motion:    1.00273184 rev/day
Decay rate:    1.3899E-006 rev/day^2
Epoch rev:            1877
Checksum:              251

Satellite: INMARSAT 3-F5
Catalog number: 25153
Epoch time:      103017.05055557
Element set:     833 
Inclination:        0.4459 deg
RA of node:       357.4673 deg
Eccentricity:    0.0003810
Arg of perigee:   313.0559 deg
Mean anomaly:     208.7476 deg
Mean motion:    1.00276883 rev/day
Decay rate:    1.5800E-006 rev/day^2
Epoch rev:            1817
Checksum:              292

Satellite: HOT BIRD 4
Catalog number: 25237
Epoch time:      103013.80550721
Element set:     325 
Inclination:        0.0242 deg
RA of node:       116.4838 deg
Eccentricity:    0.0007929
Arg of perigee:   193.6371 deg
Mean anomaly:     105.7449 deg
Mean motion:    1.00276095 rev/day
Decay rate:    1.0700E-006 rev/day^2
Epoch rev:            1818
Checksum:              265

Satellite: NOAA 15
Catalog number: 25338
Epoch time:      103019.95155962
Element set:     974 
Inclination:       98.5510 deg
RA of node:        42.9042 deg
Eccentricity:    0.0011279
Arg of perigee:    46.2358 deg
Mean anomaly:     313.9754 deg
Mean motion:   14.24231153 rev/day
Decay rate:    3.0100E-006 rev/day^2
Epoch rev:           24358
Checksum:              297

Satellite: RESURS O1-N4
Catalog number: 25394
Epoch time:      103019.55999249
Element set:     427 
Inclination:       98.6368 deg
RA of node:        98.0362 deg
Eccentricity:    0.0001448
Arg of perigee:   160.6619 deg
Mean anomaly:     199.4616 deg
Mean motion:   14.23866401 rev/day
Decay rate:    2.2100E-006 rev/day^2
Epoch rev:           23526
Checksum:              330

Satellite: TMSAT
Catalog number: 25396
Epoch time:      103019.24134977
Element set:     815 
Inclination:       98.6325 deg
RA of node:        96.9354 deg
Eccentricity:    0.0002538
Arg of perigee:   197.4850 deg
Mean anomaly:     162.6242 deg
Mean motion:   14.23500697 rev/day
Decay rate:   -4.3000E-007 rev/day^2
Epoch rev:           23521
Checksum:              307

Satellite: TECHSAT 1B
Catalog number: 25397
Epoch time:      103015.94654005
Element set:     134 
Inclination:       98.6280 deg
RA of node:        92.6275 deg
Eccentricity:    0.0000515
Arg of perigee:   208.9633 deg
Mean anomaly:     151.1516 deg
Mean motion:   14.22951279 rev/day
Decay rate:    1.1099E-006 rev/day^2
Epoch rev:           23471
Checksum:              298

Satellite: ASTRA 2A
Catalog number: 25462
Epoch time:      103013.00000000
Element set:     528 
Inclination:        0.0385 deg
RA of node:       308.7109 deg
Eccentricity:    0.0004824
Arg of perigee:   280.8620 deg
Mean anomaly:     270.7162 deg
Mean motion:    1.00272094 rev/day
Decay rate:    1.6899E-006 rev/day^2
Epoch rev:            1607
Checksum:              243

Satellite: EUTELSAT W2
Catalog number: 25491
Epoch time:      103015.86810854
Element set:     564 
Inclination:        0.0572 deg
RA of node:       107.9262 deg
Eccentricity:    0.0003740
Arg of perigee:   184.8614 deg
Mean anomaly:     150.6403 deg
Mean motion:    1.00275257 rev/day
Decay rate:    1.2299E-006 rev/day^2
Epoch rev:            1571
Checksum:              274

Satellite: HOT BIRD 5
Catalog number: 25495
Epoch time:      103015.13542825
Element set:     492 
Inclination:        0.0349 deg
RA of node:       198.9702 deg
Eccentricity:    0.0009463
Arg of perigee:    93.1649 deg
Mean anomaly:     263.9846 deg
Mean motion:    1.00277875 rev/day
Decay rate:    1.7500E-006 rev/day^2
Epoch rev:            1567
Checksum:              312

Satellite: SEDSAT 1
Catalog number: 25509
Epoch time:      103019.22912195
Element set:     760 
Inclination:       31.4323 deg
RA of node:       324.4955 deg
Eccentricity:    0.0357285
Arg of perigee:    37.9392 deg
Mean anomaly:     324.5930 deg
Mean motion:   14.27383876 rev/day
Decay rate:    1.5510E-005 rev/day^2
Epoch rev:           22097
Checksum:              309

Satellite: PAN SAT
Catalog number: 25520
Epoch time:      103020.22160691
Element set:     631 
Inclination:       28.4567 deg
RA of node:        59.2759 deg
Eccentricity:    0.0006279
Arg of perigee:    35.6155 deg
Mean anomaly:     324.4854 deg
Mean motion:   15.13730410 rev/day
Decay rate:    3.3719E-005 rev/day^2
Epoch rev:           23313
Checksum:              278

Satellite: ISS (ZARYA)
Catalog number: 25544
Epoch time:      103020.50294694
Element set:     604 
Inclination:       51.6374 deg
RA of node:        42.1021 deg
Eccentricity:    0.0005808
Arg of perigee:    57.7238 deg
Mean anomaly:      77.9878 deg
Mean motion:   15.59435662 rev/day
Decay rate:    2.9542E-004 rev/day^2
Epoch rev:           23796
Checksum:              317

